Location: Sungai Jaoh
(2.9167°N, 113.9167°E)
Time: 14:55:36
(UTC+00:00)

Cosmos 923 Rocket - Pass Details

Date: 30 November 2020
Orbit: 757 x 786 km, 74.0° (Epoch: 25 January)

Event Time Altitude Azimuth Distance (km) Brightness Sun altitude
Rises 21:48:01 0° 351° (N) 3,251 6.9 -7.0°
Reaches altitude 10° 21:50:24 10° 352° (N) 2,328 6.2 -6.4°
Maximum altitude 21:55:41 76° 78° (ENE) 809 4.3 -5.2°
Drops below altitude 10° 22:01:01 10° 163° (SSE) 2,342 7.1 -3.9°
Sets 22:03:24 0° 165° (SSE) 3,272 7.8 -3.4°
